Wallingford, CT

11:51 PM EDT on July 27, 2016 (GMT -0400)
Meriden Markham Municipal

Weather History for KMMK - July, 2014

Change the Weather History Date:

Monday, July 28, 2014

  Actual Average (KHVN) Record (KHVN)
Temperature  
Mean Temperature 76 °F -  
Max Temperature 82 °F 78 °F 94 °F (1979)
Min Temperature 66 °F 63 °F 55 °F (1977)
Cooling Degree Days 10    
Growing Degree Days 26 (Base 50)    
Moisture  
Dew Point 67 °F    
Average Humidity 81    
Maximum Humidity 93    
Minimum Humidity 50    
Precipitation  
Precipitation 0.07 in - - ()
Sea Level Pressure  
Sea Level Pressure 29.56 in    
Wind  
Wind Speed 5 mph (South)    
Max Wind Speed 13 mph    
Max Gust Speed 22 mph    
Visibility 8 miles    
Events Rain    
Averages and records for this station are not official NWS values.
T = Trace of Precipitation, MM = Missing Value Source: NWS Daily Summary

Daily Weather History Graph

Daily Weather History Graph

Search for Another Location

Airport or City:

Trip Planner

Search our weather history database for the weather conditions in past years. The results will help you decide how hot, cold, wet, or windy it might be!

Date:

Astronomy

Jul. 28, 2014 Rise Set
Actual Time 5:42 AM EDT 8:12 PM EDT
Civil Twilight 5:10 AM EDT 8:44 PM EDT
Nautical Twilight 4:31 AM EDT 9:23 PM EDT
Astronomical Twilight 3:46 AM EDT 10:07 PM EDT
Moon 7:22 AM EDT 8:50 PM EDT
Length of Visible Light 15h 34m
Length of Day
14h 30m
Waxing Crescent, 3% of the Moon is Illuminated
Jul 28
Waxing Crescent
Aug 3
First Quarter
Aug 10
Full
Aug 17
Last Quarter
Aug 25
New

Hourly Weather History & Observations

Time (EDT) Temp. Heat Index Dew Point Humidity Pressure Visibility Wind Dir Wind Speed Gust Speed Precip Events Conditions
12:53 AM 70.0 °F - 68.0 °F 93% 29.65 in 6.0 mi Calm Calm - N/A   Clear
1:53 AM 71.1 °F - 69.1 °F 93% 29.62 in 7.0 mi Calm Calm - N/A   Clear
2:16 AM 72.0 °F - 69.1 °F 91% 29.62 in 7.0 mi SSE 5.8 mph - N/A   Mostly Cloudy
2:24 AM 72.0 °F - 70.0 °F 93% 29.62 in 7.0 mi SSE 8.1 mph - N/A   Overcast
2:53 AM 73.0 °F - 70.0 °F 90% 29.60 in 7.0 mi SE 6.9 mph - N/A   Overcast
3:39 AM 73.0 °F - 70.0 °F 90% 29.58 in 7.0 mi Calm Calm - N/A   Overcast
3:53 AM 73.0 °F - 70.0 °F 90% 29.57 in 7.0 mi SSE 3.5 mph - N/A   Overcast
4:53 AM 73.0 °F - 70.0 °F 90% 29.57 in 7.0 mi SSE 4.6 mph - 0.00 in Rain Light Rain
5:25 AM 73.0 °F - 70.0 °F 90% 29.57 in 4.0 mi SSE 4.6 mph - 0.02 in Rain Light Rain
5:42 AM 73.0 °F - 70.0 °F 90% 29.55 in 4.0 mi SSE 5.8 mph - 0.04 in Rain Rain
5:53 AM 73.0 °F - 71.1 °F 93% 29.55 in 4.0 mi SSE 4.6 mph - 0.06 in Rain Rain
6:23 AM 73.0 °F - 71.1 °F 93% 29.55 in 5.0 mi South 6.9 mph - 0.01 in Rain Light Rain
6:34 AM 73.0 °F - 70.0 °F 90% 29.55 in 7.0 mi South 8.1 mph - 0.01 in   Overcast
6:53 AM 72.0 °F - 69.1 °F 91% 29.55 in 9.0 mi South 9.2 mph - 0.01 in   Mostly Cloudy
7:12 AM 72.0 °F - 68.0 °F 87% 29.55 in 10.0 mi South 10.4 mph 20.7 mph N/A   Mostly Cloudy
7:26 AM 71.1 °F - 68.0 °F 90% 29.55 in 10.0 mi South 8.1 mph - N/A   Scattered Clouds
7:35 AM 71.1 °F - 68.0 °F 90% 29.55 in 10.0 mi South 10.4 mph - N/A   Mostly Cloudy
7:42 AM 70.0 °F - 66.9 °F 90% 29.55 in 10.0 mi South 10.4 mph - N/A   Partly Cloudy
7:53 AM 71.1 °F - 66.9 °F 87% 29.55 in 10.0 mi South 8.1 mph - N/A   Mostly Cloudy
8:53 AM 71.1 °F - 66.9 °F 87% 29.55 in 10.0 mi South 6.9 mph - N/A   Overcast
9:13 AM 72.0 °F - 66.9 °F 84% 29.56 in 10.0 mi SSW 9.2 mph - N/A   Overcast
9:34 AM 72.0 °F - 66.9 °F 84% 29.56 in 2.0 mi South 8.1 mph - N/A   Haze
9:44 AM 72.0 °F - 66.9 °F 84% 29.56 in 10.0 mi South 8.1 mph - N/A   Overcast
10:53 AM 75.0 °F - 66.9 °F 76% 29.54 in 10.0 mi SSW 8.1 mph - N/A   Overcast
11:53 AM 75.9 °F - 68.0 °F 76% 29.53 in 10.0 mi Variable 4.6 mph - N/A   Overcast
12:29 PM 80.1 °F 82.9 °F 69.1 °F 69% 29.52 in 10.0 mi SSE 11.5 mph - N/A   Mostly Cloudy
12:53 PM 80.1 °F 82.9 °F 69.1 °F 69% 29.51 in 10.0 mi SSE 9.2 mph - N/A   Mostly Cloudy
3:53 PM 82.0 °F 83.8 °F 64.9 °F 56% 29.48 in 10.0 mi SSW 12.7 mph 21.9 mph N/A   Scattered Clouds
4:53 PM 82.0 °F 83.1 °F 63.0 °F 52% 29.48 in 10.0 mi SSW 10.4 mph 17.3 mph N/A   Clear
5:53 PM 81.0 °F 81.7 °F 61.0 °F 50% 29.50 in 10.0 mi WSW 9.2 mph 17.3 mph N/A   Scattered Clouds
6:53 PM 78.1 °F - 61.0 °F 56% 29.52 in 10.0 mi WNW 5.8 mph - N/A   Partly Cloudy
7:53 PM 75.0 °F - 59.0 °F 57% 29.54 in 10.0 mi Variable 4.6 mph - N/A   Clear
8:53 PM 72.0 °F - 59.0 °F 64% 29.57 in 10.0 mi Calm Calm - N/A   Clear
9:53 PM 69.1 °F - 60.1 °F 73% 29.60 in 10.0 mi Calm Calm - N/A   Clear
11:53 PM 66.9 °F - 59.0 °F 76% 29.63 in 10.0 mi NW 12.7 mph - N/A   Clear